Time,TemperatureF,DewpointF,PressureIn,WindDirection,WindDirectionDegrees,WindSpeedMPH,WindSpeedGustMPH,Humidity,HourlyPrecipIn,Conditions,Clouds,dailyrainin,SoftwareType,DateUTC
2013-09-27 00:07:00,67.5,41.0,29.69,NNE,22,5.8,-999.0,38,-99.99,,,0.00,Acu-Link.com,2013-09-27 07:07:00,
2013-09-27 00:23:00,67.5,40.3,29.68,WNW,292,6.8,-999.0,37,-99.99,,,0.00,Acu-Link.com,2013-09-27 07:23:00,
2013-09-27 00:38:00,67.3,39.4,29.69,WSW,247,5.3,-999.0,36,-99.99,,,0.00,Acu-Link.com,2013-09-27 07:38:00,
2013-09-27 00:53:00,67.1,39.2,29.69,West,270,5.3,-999.0,36,-99.99,,,0.00,Acu-Link.com,2013-09-27 07:53:00,
2013-09-27 01:08:00,66.9,39.8,29.70,SSW,202,6.3,-999.0,37,-99.99,,,0.00,Acu-Link.com,2013-09-27 08:08:00,
2013-09-27 01:24:00,66.7,39.6,29.70,NW,315,4.7,-999.0,37,-99.99,,,0.00,Acu-Link.com,2013-09-27 08:24:00,
2013-09-27 01:39:00,66.6,38.8,29.71,West,270,4.2,-999.0,36,-99.99,,,0.00,Acu-Link.com,2013-09-27 08:39:00,
2013-09-27 01:54:00,66.6,39.5,29.71,SW,225,4.7,-999.0,37,-99.99,,,0.00,Acu-Link.com,2013-09-27 08:54:00,
2013-09-27 02:09:00,66.0,39.7,29.71,West,270,6.8,-999.0,38,-99.99,,,0.00,Acu-Link.com,2013-09-27 09:09:00,
2013-09-27 02:25:00,65.7,40.1,29.71,West,270,8.3,-999.0,39,-99.99,,,0.00,Acu-Link.com,2013-09-27 09:25:00,
2013-09-27 02:40:00,65.8,39.5,29.71,West,270,6.8,-999.0,38,-99.99,,,0.00,Acu-Link.com,2013-09-27 09:40:00,
2013-09-27 02:56:00,65.7,38.7,29.71,WNW,292,4.7,-999.0,37,-99.99,,,0.00,Acu-Link.com,2013-09-27 09:56:00,
2013-09-27 03:11:00,65.8,38.8,29.71,WNW,292,4.7,-999.0,37,-99.99,,,0.00,Acu-Link.com,2013-09-27 10:11:00,
2013-09-27 03:26:00,65.3,39.0,29.72,NNW,337,4.7,-999.0,38,-99.99,,,0.00,Acu-Link.com,2013-09-27 10:26:00,
2013-09-27 03:42:00,64.9,39.3,29.72,SW,225,4.7,-999.0,39,-99.99,,,0.00,Acu-Link.com,2013-09-27 10:42:00,
2013-09-27 03:57:00,63.7,38.9,29.74,West,270,3.2,-999.0,40,-99.99,,,0.00,Acu-Link.com,2013-09-27 10:57:00,
2013-09-27 04:12:00,63.5,38.1,29.74,SW,225,2.7,-999.0,39,-99.99,,,0.00,Acu-Link.com,2013-09-27 11:12:00,
2013-09-27 04:28:00,63.1,37.7,29.74,NNE,22,2.2,-999.0,39,-99.99,,,0.00,Acu-Link.com,2013-09-27 11:28:00,
2013-09-27 04:43:00,62.2,38.2,29.75,West,270,4.2,-999.0,41,-99.99,,,0.00,Acu-Link.com,2013-09-27 11:43:00,
2013-09-27 04:59:00,61.9,37.9,29.74,NW,315,1.7,-999.0,41,-99.99,,,0.00,Acu-Link.com,2013-09-27 11:59:00,
2013-09-27 05:14:00,64.6,37.0,29.76,West,270,4.2,-999.0,36,-99.99,,,0.00,Acu-Link.com,2013-09-27 12:14:00,
2013-09-27 05:29:00,62.6,37.3,29.78,WSW,247,2.2,-999.0,39,-99.99,,,0.00,Acu-Link.com,2013-09-27 12:29:00,
2013-09-27 05:44:00,63.5,33.1,29.79,NW,315,2.2,-999.0,32,-99.99,,,0.00,Acu-Link.com,2013-09-27 12:44:00,
2013-09-27 05:59:00,63.9,31.9,29.80,SSW,202,2.2,-999.0,30,-99.99,,,0.00,Acu-Link.com,2013-09-27 12:59:00,
2013-09-27 06:15:00,62.8,32.5,29.81,West,270,2.2,-999.0,32,-99.99,,,0.00,Acu-Link.com,2013-09-27 13:15:00,
2013-09-27 06:30:00,63.5,29.8,29.82,WSW,247,3.7,-999.0,28,-99.99,,,0.00,Acu-Link.com,2013-09-27 13:30:00,
2013-09-27 06:45:00,64.6,30.8,29.83,South,180,2.2,-999.0,28,-99.99,,,0.00,Acu-Link.com,2013-09-27 13:45:00,
2013-09-27 07:00:00,62.8,31.7,29.83,SW,225,0.0,-999.0,31,-99.99,,,0.00,Acu-Link.com,2013-09-27 14:00:00,
2013-09-27 07:15:00,63.0,31.9,29.84,West,270,2.2,-999.0,31,-99.99,,,0.00,Acu-Link.com,2013-09-27 14:15:00,
2013-09-27 07:30:00,64.6,28.9,29.85,NW,315,2.2,-999.0,26,-99.99,,,0.00,Acu-Link.com,2013-09-27 14:30:00,
2013-09-27 07:46:00,68.0,26.6,29.85,NNE,22,3.2,-999.0,21,-99.99,,,0.00,Acu-Link.com,2013-09-27 14:46:00,
2013-09-27 08:01:00,72.9,25.5,29.85,WNW,292,3.7,-999.0,17,-99.99,,,0.00,Acu-Link.com,2013-09-27 15:01:00,
2013-09-27 08:16:00,74.7,24.0,29.86,WSW,247,2.2,-999.0,15,-99.99,,,0.00,Acu-Link.com,2013-09-27 15:16:00,
2013-09-27 08:31:00,73.0,24.2,29.86,West,270,2.2,-999.0,16,-99.99,,,0.00,Acu-Link.com,2013-09-27 15:31:00,
2013-09-27 08:47:00,74.7,24.0,29.86,SSE,157,1.1,-999.0,15,-99.99,,,0.00,Acu-Link.com,2013-09-27 15:47:00,
2013-09-27 09:02:00,76.3,23.6,29.86,NE,45,2.2,-999.0,14,-99.99,,,0.00,Acu-Link.com,2013-09-27 16:02:00,
2013-09-27 09:17:00,77.2,20.7,29.86,NNE,22,7.3,-999.0,12,-99.99,,,0.00,Acu-Link.com,2013-09-27 16:17:00,
2013-09-27 09:32:00,78.3,19.5,29.86,NNW,337,8.3,-999.0,11,-99.99,,,0.00,Acu-Link.com,2013-09-27 16:32:00,
2013-09-27 09:47:00,78.6,19.7,29.86,NNE,22,8.3,-999.0,11,-99.99,,,0.00,Acu-Link.com,2013-09-27 16:47:00,
2013-09-27 10:03:00,79.3,20.2,29.86,NNE,22,9.4,-999.0,11,-99.99,,,0.00,Acu-Link.com,2013-09-27 17:03:00,
2013-09-27 10:18:00,80.2,18.7,29.86,NNE,22,6.3,-999.0,10,-99.99,,,0.00,Acu-Link.com,2013-09-27 17:18:00,
2013-09-27 10:33:00,81.5,19.7,29.86,NE,45,8.9,-999.0,10,-99.99,,,0.00,Acu-Link.com,2013-09-27 17:33:00,
2013-09-27 10:48:00,81.3,17.1,29.86,NNW,337,4.7,-999.0,9,-99.99,,,0.00,Acu-Link.com,2013-09-27 17:48:00,
2013-09-27 11:03:00,82.0,20.1,29.85,NE,45,3.7,-999.0,10,-99.99,,,0.00,Acu-Link.com,2013-09-27 18:03:00,
2013-09-27 11:18:00,83.7,18.9,29.85,NE,45,6.8,-999.0,9,-99.99,,,0.00,Acu-Link.com,2013-09-27 18:18:00,
2013-09-27 11:34:00,84.0,19.1,29.85,West,270,2.2,-999.0,9,-99.99,,,0.00,Acu-Link.com,2013-09-27 18:34:00,
2013-09-27 11:49:00,84.0,19.1,29.84,ENE,67,4.2,-999.0,9,-99.99,,,0.00,Acu-Link.com,2013-09-27 18:49:00,
2013-09-27 12:04:00,84.7,24.4,29.84,NNE,22,6.3,-999.0,11,-99.99,,,0.00,Acu-Link.com,2013-09-27 19:04:00,
2013-09-27 12:20:00,85.1,22.4,29.83,West,270,6.3,-999.0,10,-99.99,,,0.00,Acu-Link.com,2013-09-27 19:20:00,
2013-09-27 12:35:00,85.8,20.5,29.83,SE,135,2.2,-999.0,9,-99.99,,,0.00,Acu-Link.com,2013-09-27 19:35:00,
2013-09-27 12:50:00,86.0,17.9,29.82,North,0,4.7,-999.0,8,-99.99,,,0.00,Acu-Link.com,2013-09-27 19:50:00,
2013-09-27 13:05:00,85.6,17.6,29.82,SE,135,2.7,-999.0,8,-99.99,,,0.00,Acu-Link.com,2013-09-27 20:05:00,
2013-09-27 13:20:00,87.4,15.8,29.82,SSW,202,5.3,-999.0,7,-99.99,,,0.00,Acu-Link.com,2013-09-27 20:20:00,
2013-09-27 13:36:00,87.1,18.7,29.81,SSE,157,1.7,-999.0,8,-99.99,,,0.00,Acu-Link.com,2013-09-27 20:36:00,
2013-09-27 13:51:00,88.0,22.1,29.80,SE,135,4.2,-999.0,9,-99.99,,,0.00,Acu-Link.com,2013-09-27 20:51:00,
2013-09-27 14:06:00,87.6,16.0,29.80,SSE,157,3.7,-999.0,7,-99.99,,,0.00,Acu-Link.com,2013-09-27 21:06:00,
2013-09-27 14:21:00,88.2,16.4,29.79,NNE,22,2.2,-999.0,7,-99.99,,,0.00,Acu-Link.com,2013-09-27 21:21:00,
2013-09-27 14:37:00,88.5,16.6,29.79,South,180,5.3,-999.0,7,-99.99,,,0.00,Acu-Link.com,2013-09-27 21:37:00,
2013-09-27 14:52:00,89.2,13.6,29.78,SSW,202,2.2,-999.0,6,-99.99,,,0.00,Acu-Link.com,2013-09-27 21:52:00,
2013-09-27 15:07:00,89.4,20.4,29.78,SSW,202,4.2,-999.0,8,-99.99,,,0.00,Acu-Link.com,2013-09-27 22:07:00,
2013-09-27 15:22:00,88.2,12.9,29.77,SSE,157,4.2,-999.0,6,-99.99,,,0.00,Acu-Link.com,2013-09-27 22:22:00,
2013-09-27 15:37:00,88.9,13.4,29.77,ESE,112,6.3,-999.0,6,-99.99,,,0.00,Acu-Link.com,2013-09-27 22:37:00,
2013-09-27 15:53:00,88.5,16.6,29.77,South,180,5.3,-999.0,7,-99.99,,,0.00,Acu-Link.com,2013-09-27 22:53:00,
2013-09-27 16:08:00,87.8,12.6,29.77,SSE,157,2.2,-999.0,6,-99.99,,,0.00,Acu-Link.com,2013-09-27 23:08:00,
2013-09-27 16:23:00,87.4,15.8,29.77,SE,135,3.2,-999.0,7,-99.99,,,0.00,Acu-Link.com,2013-09-27 23:23:00,
2013-09-27 16:38:00,88.2,16.4,29.78,SE,135,5.3,-999.0,7,-99.99,,,0.00,Acu-Link.com,2013-09-27 23:38:00,
2013-09-27 16:53:00,89.6,17.4,29.78,SE,135,0.0,-999.0,7,-99.99,,,0.00,Acu-Link.com,2013-09-27 23:53:00,
2013-09-27 17:09:00,89.4,17.3,29.77,SW,225,0.0,-999.0,7,-99.99,,,0.00,Acu-Link.com,2013-09-28 00:09:00,
2013-09-27 17:24:00,87.8,16.1,29.78,ESE,112,1.7,-999.0,7,-99.99,,,0.00,Acu-Link.com,2013-09-28 00:24:00,
2013-09-27 17:39:00,88.7,13.2,29.78,SW,225,0.0,-999.0,6,-99.99,,,0.00,Acu-Link.com,2013-09-28 00:39:00,
2013-09-27 17:55:00,87.4,8.2,29.78,SSW,202,0.0,-999.0,5,-99.99,,,0.00,Acu-Link.com,2013-09-28 00:55:00,
2013-09-27 18:10:00,85.1,10.7,29.79,NE,45,2.2,-999.0,6,-99.99,,,0.00,Acu-Link.com,2013-09-28 01:10:00,
2013-09-27 18:25:00,83.1,12.7,29.79,NNE,22,1.7,-999.0,7,-99.99,,,0.00,Acu-Link.com,2013-09-28 01:25:00,
2013-09-27 18:40:00,81.7,14.7,29.79,ESE,112,1.7,-999.0,8,-99.99,,,0.00,Acu-Link.com,2013-09-28 01:40:00,
2013-09-27 18:56:00,80.6,13.9,29.79,NNE,22,2.2,-999.0,8,-99.99,,,0.00,Acu-Link.com,2013-09-28 01:56:00,
2013-09-27 19:11:00,79.9,13.4,29.80,ENE,67,1.7,-999.0,8,-99.99,,,0.00,Acu-Link.com,2013-09-28 02:11:00,
2013-09-27 19:26:00,78.1,14.7,29.80,SSW,202,0.0,-999.0,9,-99.99,,,0.00,Acu-Link.com,2013-09-28 02:26:00,
2013-09-27 19:42:00,77.4,14.2,29.81,West,270,0.0,-999.0,9,-99.99,,,0.00,Acu-Link.com,2013-09-28 02:42:00,
2013-09-27 19:57:00,76.8,16.1,29.82,WNW,292,3.2,-999.0,10,-99.99,,,0.00,Acu-Link.com,2013-09-28 02:57:00,
2013-09-27 20:12:00,76.8,16.1,29.82,South,180,0.0,-999.0,10,-99.99,,,0.00,Acu-Link.com,2013-09-28 03:12:00,
2013-09-27 20:27:00,76.6,16.0,29.82,NNE,22,1.7,-999.0,10,-99.99,,,0.00,Acu-Link.com,2013-09-28 03:27:00,
2013-09-27 20:43:00,75.4,17.2,29.83,West,270,1.1,-999.0,11,-99.99,,,0.00,Acu-Link.com,2013-09-28 03:43:00,
2013-09-27 20:58:00,75.6,15.2,29.84,West,270,2.2,-999.0,10,-99.99,,,0.00,Acu-Link.com,2013-09-28 03:58:00,
2013-09-27 21:13:00,75.4,15.1,29.84,WSW,247,2.7,-999.0,10,-99.99,,,0.00,Acu-Link.com,2013-09-28 04:13:00,
2013-09-27 21:28:00,75.0,14.8,29.84,WSW,247,2.7,-999.0,10,-99.99,,,0.00,Acu-Link.com,2013-09-28 04:28:00,
2013-09-27 21:43:00,75.0,14.8,29.86,North,0,0.0,-999.0,10,-99.99,,,0.00,Acu-Link.com,2013-09-28 04:43:00,
2013-09-27 21:59:00,73.6,17.9,29.85,West,270,2.2,-999.0,12,-99.99,,,0.00,Acu-Link.com,2013-09-28 04:59:00,
2013-09-27 22:14:00,71.8,21.7,29.86,SW,225,0.0,-999.0,15,-99.99,,,0.00,Acu-Link.com,2013-09-28 05:14:00,
2013-09-27 22:29:00,71.1,17.8,29.85,West,270,0.0,-999.0,13,-99.99,,,0.00,Acu-Link.com,2013-09-28 05:29:00,
2013-09-27 22:45:00,70.7,22.3,29.86,SSW,202,0.0,-999.0,16,-99.99,,,0.00,Acu-Link.com,2013-09-28 05:45:00,
2013-09-27 23:00:00,69.6,22.9,29.86,SW,225,0.0,-999.0,17,-99.99,,,0.00,Acu-Link.com,2013-09-28 06:00:00,
2013-09-27 23:15:00,68.7,26.0,29.86,West,270,0.0,-999.0,20,-99.99,,,0.00,Acu-Link.com,2013-09-28 06:15:00,
2013-09-27 23:30:00,67.1,20.8,29.85,West,270,0.0,-999.0,17,-99.99,,,0.00,Acu-Link.com,2013-09-28 06:30:00,
2013-09-27 23:46:00,66.6,23.1,29.86,SE,135,0.0,-999.0,19,-99.99,,,0.00,Acu-Link.com,2013-09-28 06:46:00,